POLYITAN-1

Last updated on Wed Sep 17 2025 00:03:49 GMT+0000 (Coordinated Universal Time)

1 40042U 14033AJ 25259.52316269 .00016798 00000+0 75319-3 0 9996 2 40042 98.1097 257.1211 0010328 35.3925 324.7992 15.21257720611811
UTC large
Height (km)
Speed (km/s)
/
Latitude / Longitude
Inclination (degrees)
Orbital Period (minutes)
Azimuth
Elevation
Range (km)
Doppler Factor

Next 0 passes for location: London (51.5072 / 0.1276)

Sorry there are no passes over London.